Julián Ferreyra

Chefscout - Madryn
13 Nov 2027
Samstag
Verarbeitung

Persönlichkeit

Anpassungsfähigkeit (19) Ehrgeiz (18) Kontroverse (12) Loyalität (1) Druck (19) Professionalität (17) Fairness (2) Temperament (9)

Profil

Trainerstil Demokratisch
Lizenz Kontinentale B
Entschlossenheit 7
Menschenführung 2
Motivation 3
Disziplin 5
Arbeitszufriedenheit
100%
Ermüdung
0%
Rolle Chefscout
Gehalt 15.6K p/W
Vertrag 14.03.2028

Leistung

Verhalten Gut
Trainingseffektivität
20%
Spielerentwicklung
30%
Verletzungsprävention
5%
Taktische Umsetzung
30%

Letzte Ereignisse

Spieler begutachtet jetzt
Nahm an einer Scouting-Besprechung teil jetzt
Spieler begutachtet jetzt
Nahm an einer Scouting-Besprechung teil 7T her
Spieler begutachtet 7T her
Spieler begutachtet 7T her
Spieler begutachtet 7T her
Spieler begutachtet 7T her

Aktuell beobachtet

117
Spieler Verein Status Fähigkeit Vertrauen Beobachtet Zuletzt beobachtet Letzte Stimme
Thomas Ortega Quilmes Aktiv 111 / 100 40% 1 11.11.2027 -
Marco Miori Alvarado Aktiv 111 / 111 40% 1 11.11.2027 -
Patricio Moyano Defensores Aktiv 108 / 127 40% 1 10.11.2027 -
Juan David Rueda Alianza Petrolera Aktiv 112 / 114 40% 1 10.11.2027 -
Juan Yangali San Telmo Aktiv 111 / 128 40% 4 09.11.2027 -
Valentín Serrano Arsenal Aktiv 119 / 102 40% 2 09.11.2027 -
Brian Nievas Chaco For Ever Aktiv 116 / 97 40% 2 08.11.2027 -
Milton Gerez Güemes Aktiv 113 / 109 40% 2 08.11.2027 -
Santiago Sala Güemes Aktiv 102 / 108 40% 2 07.11.2027 -
Gastón Moreyra Almirante Brown Aktiv 124 / 118 40% 1 06.11.2027 -
Leonardo Olavarría Uruguay Montevideo Aktiv 110 / 111 40% 1 06.11.2027 -
Ulises Vera Quilmes Aktiv 111 / 115 40% 2 04.11.2027 -
Diogo Guzmán Montevideo City Torque Aktiv 123 / 116 40% 1 04.11.2027 -
Enzo Hoyos Ferro Carril Oeste Aktiv 127 / 111 40% 1 03.11.2027 -
Segundo Pachamé Plaza Colonia Aktiv 99 / 104 40% 1 01.11.2027 -
Lucas Ríos Atlanta Aktiv 129 / 108 40% 1 28.10.2027 -
David Veliz Güemes Aktiv 119 / 110 40% 1 28.10.2027 -
Santiago Valenzuela Chaco For Ever Aktiv 101 / 113 40% 2 25.10.2027 -
Fabricio Rojas Gimnasia y Tiro Aktiv 109 / 122 40% 1 25.10.2027 -
Mateo Zuleta Once Caldas Aktiv 115 / 123 40% 1 24.10.2027 -
Yefferson Colmenárez Zulia Aktiv 95 / 100 40% 1 22.10.2027 -
Federico Versaci Talleres Aktiv 103 / 118 40% 1 21.10.2027 -
Franco Fagúndez Estudiantes Aktiv 112 / 112 40% 1 21.10.2027 -
Carlos Gugenheim Almirante Brown Aktiv 107 / 114 40% 1 20.10.2027 -
Federico Pérez Agropecuario Argentino Aktiv 115 / 109 40% 1 20.10.2027 -
Facundo Ardiles Estudiantes Aktiv 125 / 120 40% 1 19.10.2027 -
Erik de los Santos Racing Aktiv 116 / 119 40% 1 19.10.2027 -
Ignacio Rodríguez Central Espanol Aktiv 108 / 94 40% 1 29.11.2026 -
Nicolás Kozlovsky Oriental Aktiv 112 / 106 40% 1 29.11.2026 -
Matías Machado Racing Aktiv 116 / 98 40% 1 26.11.2026 -
Rafael Haller Liverpool Montevideo Aktiv 100 / 108 40% 1 25.11.2026 -
Matías Núñez Carabobo Aktiv 100 / 98 40% 4 23.11.2026 -
Emiliano Ancheta Nacional Aktiv 123 / 116 40% 1 22.11.2026 -
Nahuel Sena Cerro Aktiv 111 / 105 40% 1 21.11.2026 -
Miguel Pernía Carabobo Aktiv 111 / 102 40% 1 21.11.2026 -
Martín Ginzo Deportivo Maldonado Aktiv 93 / 106 40% 3 16.11.2026 -
Bautista Carrera Avellino Aktiv 100 / 99 40% 1 16.11.2026 -
Juan Díaz Universidad Catolica Aktiv 112 / 108 40% 3 15.11.2026 -
Gianfranco Trasante Progreso Aktiv 115 / 107 40% 1 15.11.2026 -
Aron Agüero Maipú Aktiv 121 / 110 40% 1 14.11.2026 -
Yerco Oyanedel Universidad de Concepcion Aktiv 115 / 100 40% 1 13.11.2026 -
Franco Quinteros Estudiantes Aktiv 111 / 102 40% 1 13.11.2026 -
Mathías Silvera Chaco For Ever Aktiv 105 / 99 40% 1 09.11.2026 -
Carlos Faya Deportivo La Guaira Aktiv 100 / 111 40% 1 09.11.2026 -
Agustín Benítez Defensores Aktiv 103 / 120 40% 1 04.11.2026 -
Axel Prado Cerro Largo Aktiv 89 / 97 40% 1 04.11.2026 -
Ismael Cortez Gimnasia y Esgrima Aktiv 111 / 115 40% 1 03.11.2026 -
Andrés Ayala Hellas Verona Aktiv 108 / 103 40% 1 03.11.2026 -
Nicolás Fernandez Universidad de Chile Aktiv 112 / 113 40% 1 02.11.2026 -
Matías Núñez Atenas Aktiv 105 / 102 40% 3 30.10.2026 -
Juan Millán Danubio Aktiv 98 / 96 40% 3 28.10.2026 -
Benjamín Ilama Uruguay Montevideo Aktiv 103 / 95 40% 1 28.10.2026 -
Ezequiel Neira Carabobo Aktiv 106 / 115 40% 3 27.10.2026 -
Juan Luis Alfaro Banfield Aktiv 126 / 105 40% 1 27.10.2026 -
Walter Juárez Güemes Aktiv 120 / 113 40% 1 26.10.2026 -
Cristian Gorgerino Alvarado Aktiv 112 / 101 40% 1 24.10.2026 -
Nicolás Morro Defensores Aktiv 93 / 108 40% 1 21.10.2026 -
Julián Vila Arsenal Aktiv 104 / 94 40% 1 21.10.2026 -
Germán Peralta La Luz Aktiv 90 / 109 40% 1 19.10.2026 -
Lautaro Centurión Fenix Aktiv 86 / 88 40% 2 17.10.2026 -
Leandro Lacunza Hibernians Aktiv 104 / 104 40% 1 17.10.2026 -
Maximiliano Luayza Koot Tristán Suárez Aktiv 97 / 106 40% 1 16.10.2026 -
Maico Quiroz Güemes Aktiv 115 / 113 40% 1 15.10.2026 -
Alejandro Molina Tristán Suárez Aktiv 101 / 106 40% 1 15.10.2026 -
Lucas Núñez Deportivo Maldonado Aktiv 98 / 104 40% 1 14.10.2026 -
Lucas Arzamendia Atenas Aktiv 103 / 109 40% 1 11.10.2026 -
Alejo Antilef Penarol Aktiv 106 / 109 40% 1 09.10.2026 -
Damián Cabrera River Plate Aktiv 95 / 83 40% 1 09.10.2026 -
Mauricio Guzmán Tristán Suárez Aktiv 100 / 122 40% 1 06.10.2026 -
Maximiliano Ribero Central Norte Aktiv 125 / 124 40% 1 05.10.2026 -
Gonzalo Gamarra Floriana Aktiv 110 / 107 40% 1 04.10.2026 -
Diego Gallegos Morelia Aktiv 119 / 85 40% 1 04.10.2026 -
Román Suárez Alianza Atletico Aktiv 83 / 89 40% 1 01.10.2026 -
Nahuel Gallardo San Martín Aktiv 115 / 108 40% 1 01.10.2026 -
Augusto Gallo Fenix Aktiv 100 / 85 40% 2 30.09.2026 -
José Caldera Deportivo Cali Aktiv 120 / 126 40% 1 30.09.2026 -
Mateo Puerta Deportivo Cali Aktiv 117 / 110 40% 2 29.09.2026 -
Jimmy Martínez Universidad Catolica Aktiv 111 / 98 40% 1 29.09.2026 -
Santiago Laquidain Liverpool Montevideo Aktiv 104 / 94 40% 2 25.09.2026 -
Andrés Olivera Colon Aktiv 111 / 116 40% 1 25.09.2026 -
Daniel Rodriguez Valledupar Aktiv 129 / 119 40% 2 23.09.2026 -
Milton Valenzuela Atlas Aktiv 123 / 107 40% 3 21.09.2026 -
Leonel Pollacchi San Telmo Aktiv 106 / 111 40% 1 21.09.2026 -
Ezequiel Busquets Montevideo City Torque Aktiv 97 / 98 40% 2 20.09.2026 -
Julián Pou Montevideo City Torque Aktiv 90 / 106 40% 1 20.09.2026 -
Adrián Vila Rampla Juniors Aktiv 96 / 93 40% 1 19.09.2026 -
Gonzalo Silva Progreso Aktiv 112 / 103 40% 1 16.09.2026 -
Santiago Viera Cerrito Aktiv 96 / 113 40% 2 15.09.2026 -
Mauricio Isais Pachuca Aktiv 96 / 96 40% 1 14.09.2026 -
Tomás López River Plate Aktiv 89 / 101 40% 1 12.09.2026 -
Bianneider Tamayo Universidad de Chile Aktiv 110 / 104 40% 3 10.09.2026 -
Daniel Zapata Envigado Aktiv 100 / 106 40% 1 07.09.2026 -
Guido Sosa Atenas Aktiv 91 / 110 40% 2 06.09.2026 -
Mariano Ramos Guarani Aktiv 104 / 90 40% 1 06.09.2026 -
Rodrigo Schlegel Atlas Aktiv 107 / 118 40% 1 05.09.2026 -
Brayan Murillo Envigado Aktiv 86 / 115 40% 1 03.09.2026 -
Facundo Silvera Montevideo City Torque Aktiv 95 / 113 40% 1 02.09.2026 -
Fabián Ángel Junior Aktiv 101 / 102 40% 1 30.08.2026 -
Juan José Tello Deportivo Cali Aktiv 105 / 111 40% 1 30.08.2026 -
Sebastián Santos Leon Aktiv 109 / 100 40% 1 27.08.2026 -
Lucas Ymbert Uruguay Montevideo Aktiv 92 / 91 40% 1 25.08.2026 -
Juan Felipe Castaño Once Caldas Aktiv 105 / 99 40% 1 24.08.2026 -
Juan Manuel Ramos Deportivo Maldonado Aktiv 106 / 92 40% 1 24.08.2026 -
Marcos Mina America de Cali Aktiv 109 / 102 40% 1 23.08.2026 -
Pablo Monroy Pumas UNAM Aktiv 132 / 136 40% 1 16.08.2026 -
Juan Bosca Racing Aktiv 99 / 95 40% 1 15.08.2026 -
Marco Farfan Tigres Aktiv 112 / 120 40% 1 15.08.2026 -
Facundo Pérez Juventud Aktiv 94 / 110 40% 1 13.08.2026 -
Manuel Rios Universitario Popayan Aktiv 97 / 114 40% 1 12.08.2026 -
Mauro Martín Progreso Aktiv 102 / 98 40% 1 11.08.2026 -
Álvaro San Emeterio Tacuarembo Aktiv 104 / 97 40% 1 11.08.2026 -
Mathías Pintos La Luz Aktiv 95 / 108 40% 1 10.08.2026 -
Santiago Milano Liverpool Montevideo Aktiv 81 / 108 40% 1 09.08.2026 -
Alonso Aceves Monterrey Aktiv 100 / 121 40% 1 05.08.2026 -
Tomás Moschion Albion Aktiv 107 / 104 40% 1 04.08.2026 -
Facundo Butti Cerro Aktiv 90 / 85 40% 1 04.08.2026 -
Cristian Tovar America de Cali Aktiv 108 / 118 40% 1 02.08.2026 -